Time,TemperatureF,DewpointF,PressureIn,WindDirection,WindDirectionDegrees,WindSpeedMPH,WindSpeedGustMPH,Humidity,HourlyPrecipIn,Conditions,Clouds,dailyrainin,SolarRadiationWatts/m^2,SoftwareType,DateUTC
2013-01-24 00:00:00,34.6,33.8,30.22,WSW,249,0.0,0.0,97,0.01,,,0.01,0.00,VWS V14.01,2013-01-24 08:00:00,
2013-01-24 00:01:00,34.4,33.6,30.21,WSW,249,0.0,0.0,97,0.01,,,0.00,0.00,VWS V14.01,2013-01-24 08:01:00,
2013-01-24 00:06:00,34.4,33.6,30.21,WSW,249,0.0,0.0,97,0.01,,,0.00,0.00,VWS V14.01,2013-01-24 08:06:00,
2013-01-24 00:11:00,34.4,33.6,30.21,WSW,249,0.0,0.0,97,0.01,,,0.00,0.00,VWS V14.01,2013-01-24 08:11:00,
2013-01-24 00:16:00,34.5,33.7,30.21,WSW,249,0.0,0.0,97,0.01,,,0.00,0.00,VWS V14.01,2013-01-24 08:16:00,
2013-01-24 00:21:00,34.5,33.7,30.22,WSW,249,0.0,0.0,97,0.01,,,0.00,0.00,VWS V14.01,2013-01-24 08:21:00,
2013-01-24 00:26:00,34.5,33.7,30.22,WSW,249,0.0,0.0,97,0.01,,,0.00,0.00,VWS V14.01,2013-01-24 08:26:00,
2013-01-24 00:30:00,34.5,33.7,30.23,WSW,249,0.0,0.0,97,0.01,,,0.01,0.00,VWS V14.01,2013-01-24 08:30:00,
2013-01-24 00:31:00,34.5,33.7,30.22,WSW,249,0.0,0.0,97,0.00,,,0.00,0.00,VWS V14.01,2013-01-24 08:31:00,
2013-01-24 00:36:00,34.5,33.7,30.22,WSW,249,0.0,0.0,97,0.00,,,0.00,0.00,VWS V14.01,2013-01-24 08:36:00,
2013-01-24 00:41:00,34.5,33.7,30.22,WSW,249,0.0,0.0,97,0.01,,,0.01,0.00,VWS V14.01,2013-01-24 08:41:00,
2013-01-24 00:46:00,34.6,33.8,30.22,WSW,249,0.0,0.0,97,0.01,,,0.01,0.00,VWS V14.01,2013-01-24 08:46:00,
2013-01-24 00:51:00,34.6,33.8,30.22,WSW,249,0.0,0.0,97,0.01,,,0.01,0.00,VWS V14.01,2013-01-24 08:51:00,
2013-01-24 00:56:00,34.6,33.8,30.22,WSW,249,0.0,0.0,97,0.01,,,0.01,0.00,VWS V14.01,2013-01-24 08:56:00,
2013-01-24 01:00:00,34.4,33.6,30.24,WSW,249,0.0,0.0,97,0.01,,,0.01,0.00,VWS V14.01,2013-01-24 09:00:00,
2013-01-24 01:01:00,34.6,33.8,30.22,WSW,249,0.0,0.0,97,0.01,,,0.01,0.00,VWS V14.01,2013-01-24 09:01:00,
2013-01-24 01:06:00,34.6,33.8,30.23,WSW,249,0.0,0.0,97,0.01,,,0.01,0.00,VWS V14.01,2013-01-24 09:06:00,
2013-01-24 01:11:00,34.6,33.8,30.23,WSW,249,0.0,0.0,97,0.01,,,0.01,0.00,VWS V14.01,2013-01-24 09:11:00,
2013-01-24 01:16:00,34.6,33.8,30.23,WSW,249,0.0,0.0,97,0.01,,,0.01,0.00,VWS V14.01,2013-01-24 09:16:00,
2013-01-24 01:21:00,34.5,33.7,30.23,WSW,249,0.0,0.0,97,0.01,,,0.01,0.00,VWS V14.01,2013-01-24 09:21:00,
2013-01-24 01:26:00,34.5,33.7,30.23,WSW,249,0.0,0.0,97,0.01,,,0.01,0.00,VWS V14.01,2013-01-24 09:26:00,
2013-01-24 01:30:00,34.2,33.7,30.24,WSW,249,0.0,0.0,98,0.00,,,0.01,0.00,VWS V14.01,2013-01-24 09:30:00,
2013-01-24 01:31:00,34.5,33.7,30.23,WSW,249,0.0,0.0,97,0.01,,,0.01,0.00,VWS V14.01,2013-01-24 09:31:00,
2013-01-24 01:36:00,34.5,33.7,30.23,WSW,249,0.0,0.0,97,0.01,,,0.01,0.00,VWS V14.01,2013-01-24 09:36:00,
2013-01-24 01:41:00,34.5,33.7,30.23,WSW,249,0.0,0.0,97,0.01,,,0.01,0.00,VWS V14.01,2013-01-24 09:41:00,
2013-01-24 01:46:00,34.4,33.6,30.23,WSW,249,0.0,0.0,97,0.01,,,0.01,0.00,VWS V14.01,2013-01-24 09:46:00,
2013-01-24 01:51:00,34.4,33.6,30.24,WSW,249,0.0,0.0,97,0.01,,,0.01,0.00,VWS V14.01,2013-01-24 09:51:00,
2013-01-24 01:56:00,34.4,33.6,30.24,WSW,249,0.0,0.0,97,0.01,,,0.01,0.00,VWS V14.01,2013-01-24 09:56:00,
2013-01-24 02:00:00,33.7,32.9,30.24,WSW,249,0.0,0.0,97,0.00,,,0.01,0.00,VWS V14.01,2013-01-24 10:00:00,
2013-01-24 02:01:00,34.4,33.6,30.24,WSW,249,0.0,0.0,97,0.00,,,0.01,0.00,VWS V14.01,2013-01-24 10:01:00,
2013-01-24 02:06:00,34.3,33.5,30.24,WSW,249,0.0,0.0,97,0.00,,,0.01,0.00,VWS V14.01,2013-01-24 10:06:00,
2013-01-24 02:11:00,34.3,33.5,30.24,WSW,249,0.0,0.0,97,0.00,,,0.01,0.00,VWS V14.01,2013-01-24 10:11:00,
2013-01-24 02:16:00,34.3,33.8,30.24,WSW,249,0.0,0.0,98,0.00,,,0.01,0.00,VWS V14.01,2013-01-24 10:16:00,
2013-01-24 02:21:00,34.3,33.8,30.24,WSW,249,0.0,0.0,98,0.00,,,0.01,0.00,VWS V14.01,2013-01-24 10:21:00,
2013-01-24 02:26:00,34.2,33.7,30.24,WSW,249,0.0,0.0,98,0.00,,,0.01,0.00,VWS V14.01,2013-01-24 10:26:00,
2013-01-24 02:30:00,32.9,32.1,30.24,WSW,249,0.0,1.0,97,0.00,,,0.01,0.00,VWS V14.01,2013-01-24 10:30:00,
2013-01-24 02:31:00,34.2,33.7,30.25,WSW,249,0.0,0.0,98,0.00,,,0.01,0.00,VWS V14.01,2013-01-24 10:31:00,
2013-01-24 02:36:00,34.2,33.7,30.25,WSW,249,0.0,0.0,98,0.00,,,0.01,0.00,VWS V14.01,2013-01-24 10:36:00,
2013-01-24 02:41:00,34.1,33.6,30.25,WSW,249,0.0,0.0,98,0.00,,,0.01,0.00,VWS V14.01,2013-01-24 10:41:00,
2013-01-24 02:46:00,34.0,33.5,30.24,WSW,249,0.0,0.0,98,0.00,,,0.01,0.00,VWS V14.01,2013-01-24 10:46:00,
2013-01-24 02:51:00,33.9,33.1,30.24,WSW,249,0.0,0.0,97,0.00,,,0.01,0.00,VWS V14.01,2013-01-24 10:51:00,
2013-01-24 02:56:00,33.8,33.0,30.24,WSW,249,0.0,0.0,97,0.00,,,0.01,0.00,VWS V14.01,2013-01-24 10:56:00,
2013-01-24 03:00:00,31.9,31.1,30.24,WSW,249,0.0,0.0,97,0.00,,,0.01,0.00,VWS V14.01,2013-01-24 11:00:00,
2013-01-24 03:01:00,33.7,32.9,30.24,WSW,249,0.0,0.0,97,0.00,,,0.01,0.00,VWS V14.01,2013-01-24 11:01:00,
2013-01-24 03:06:00,33.5,32.7,30.24,WSW,249,0.0,1.0,97,0.00,,,0.01,0.00,VWS V14.01,2013-01-24 11:06:00,
2013-01-24 03:11:00,33.4,32.6,30.24,WSW,249,0.0,1.0,97,0.00,,,0.01,0.00,VWS V14.01,2013-01-24 11:11:00,
2013-01-24 03:16:00,33.3,32.5,30.24,WSW,249,0.0,1.0,97,0.00,,,0.01,0.00,VWS V14.01,2013-01-24 11:16:00,
2013-01-24 03:21:00,33.1,32.3,30.24,WSW,249,0.0,1.0,97,0.00,,,0.01,0.00,VWS V14.01,2013-01-24 11:21:00,
2013-01-24 03:26:00,33.0,32.2,30.24,WSW,249,0.0,1.0,97,0.00,,,0.01,0.00,VWS V14.01,2013-01-24 11:26:00,
2013-01-24 03:30:00,31.2,30.5,30.23,WSW,249,0.0,1.0,97,0.00,,,0.01,0.00,VWS V14.01,2013-01-24 11:30:00,
2013-01-24 03:31:00,32.8,32.0,30.24,WSW,249,0.0,0.0,97,0.00,,,0.01,0.00,VWS V14.01,2013-01-24 11:31:00,
2013-01-24 03:36:00,32.7,31.9,30.24,WSW,249,0.0,0.0,97,0.00,,,0.01,0.00,VWS V14.01,2013-01-24 11:36:00,
2013-01-24 03:41:00,32.5,31.7,30.24,WSW,249,0.0,0.0,97,0.00,,,0.01,0.00,VWS V14.01,2013-01-24 11:41:00,
2013-01-24 03:46:00,32.4,31.6,30.24,WSW,249,0.0,0.0,97,0.00,,,0.01,0.00,VWS V14.01,2013-01-24 11:46:00,
2013-01-24 03:51:00,32.3,31.5,30.24,WSW,249,0.0,0.0,97,0.00,,,0.01,0.00,VWS V14.01,2013-01-24 11:51:00,
2013-01-24 03:56:00,32.0,31.2,30.24,WSW,249,0.0,0.0,97,0.00,,,0.01,0.00,VWS V14.01,2013-01-24 11:56:00,
2013-01-24 04:00:00,31.2,30.5,30.21,WSW,249,0.0,0.0,97,0.00,,,0.01,0.00,VWS V14.01,2013-01-24 12:00:00,
2013-01-24 04:01:00,31.9,31.1,30.24,WSW,249,0.0,0.0,97,0.00,,,0.01,0.00,VWS V14.01,2013-01-24 12:01:00,
2013-01-24 04:06:00,31.7,31.0,30.24,WSW,249,0.0,0.0,97,0.00,,,0.01,0.00,VWS V14.01,2013-01-24 12:06:00,
2013-01-24 04:11:00,31.5,30.8,30.24,WSW,249,0.0,0.0,97,0.00,,,0.01,0.00,VWS V14.01,2013-01-24 12:11:00,
2013-01-24 04:16:00,31.4,30.6,30.24,WSW,249,0.0,0.0,97,0.00,,,0.01,0.00,VWS V14.01,2013-01-24 12:16:00,
2013-01-24 04:21:00,31.3,30.5,30.23,WSW,249,0.0,0.0,97,0.00,,,0.01,0.00,VWS V14.01,2013-01-24 12:21:00,
2013-01-24 04:26:00,31.2,30.5,30.23,WSW,249,0.0,1.0,97,0.00,,,0.01,0.00,VWS V14.01,2013-01-24 12:26:00,
2013-01-24 04:30:00,31.5,31.0,30.21,WSW,249,0.0,1.0,98,0.00,,,0.01,0.00,VWS V14.01,2013-01-24 12:30:00,
2013-01-24 04:31:00,31.2,30.5,30.23,WSW,249,0.0,0.0,97,0.00,,,0.01,0.00,VWS V14.01,2013-01-24 12:31:00,
2013-01-24 04:36:00,31.1,30.4,30.23,WSW,249,0.0,0.0,97,0.00,,,0.01,0.00,VWS V14.01,2013-01-24 12:36:00,
2013-01-24 04:41:00,31.2,30.5,30.22,WSW,249,0.0,0.0,97,0.00,,,0.01,0.00,VWS V14.01,2013-01-24 12:41:00,
2013-01-24 04:46:00,31.2,30.5,30.22,WSW,249,0.0,0.0,97,0.00,,,0.01,0.00,VWS V14.01,2013-01-24 12:46:00,
2013-01-24 04:51:00,31.2,30.5,30.21,WSW,249,0.0,0.0,97,0.00,,,0.01,0.00,VWS V14.01,2013-01-24 12:51:00,
2013-01-24 04:56:00,31.2,30.5,30.21,WSW,249,0.0,0.0,97,0.00,,,0.01,0.00,VWS V14.01,2013-01-24 12:56:00,
2013-01-24 05:00:00,31.2,30.7,30.22,WSW,249,0.0,1.0,98,0.00,,,0.01,0.00,VWS V14.01,2013-01-24 13:00:00,
2013-01-24 05:01:00,31.2,30.5,30.21,WSW,249,0.0,0.0,97,0.00,,,0.01,0.00,VWS V14.01,2013-01-24 13:01:00,
2013-01-24 05:06:00,31.3,30.5,30.21,WSW,249,0.0,0.0,97,0.00,,,0.01,0.00,VWS V14.01,2013-01-24 13:06:00,
2013-01-24 05:11:00,31.3,30.5,30.21,WSW,249,0.0,0.0,97,0.00,,,0.01,0.00,VWS V14.01,2013-01-24 13:11:00,
2013-01-24 05:16:00,31.3,30.5,30.21,WSW,249,0.0,1.0,97,0.00,,,0.01,0.00,VWS V14.01,2013-01-24 13:16:00,
2013-01-24 05:21:00,31.4,30.9,30.21,WSW,249,0.0,1.0,98,0.00,,,0.01,0.00,VWS V14.01,2013-01-24 13:21:00,
2013-01-24 05:26:00,31.5,31.0,30.21,WSW,249,0.0,1.0,98,0.00,,,0.01,0.00,VWS V14.01,2013-01-24 13:26:00,
2013-01-24 05:30:00,30.8,30.3,30.23,WSW,249,0.0,0.0,98,0.00,,,0.01,0.00,VWS V14.01,2013-01-24 13:30:00,
2013-01-24 05:31:00,31.5,31.0,30.21,WSW,249,0.0,0.0,98,0.00,,,0.01,0.00,VWS V14.01,2013-01-24 13:31:00,
2013-01-24 05:36:00,31.4,30.9,30.22,WSW,249,0.0,0.0,98,0.00,,,0.01,0.00,VWS V14.01,2013-01-24 13:36:00,
2013-01-24 05:41:00,31.4,30.9,30.22,WSW,249,0.0,0.0,98,0.00,,,0.01,0.00,VWS V14.01,2013-01-24 13:41:00,
2013-01-24 05:46:00,31.4,30.9,30.23,WSW,249,0.0,0.0,98,0.00,,,0.01,0.00,VWS V14.01,2013-01-24 13:46:00,
2013-01-24 05:51:00,31.3,30.8,30.23,WSW,249,0.0,1.0,98,0.00,,,0.01,0.00,VWS V14.01,2013-01-24 13:51:00,
2013-01-24 05:56:00,31.2,30.7,30.23,WSW,249,0.0,1.0,98,0.00,,,0.01,0.00,VWS V14.01,2013-01-24 13:56:00,
2013-01-24 06:00:00,30.4,29.9,30.22,WSW,249,0.0,1.0,98,0.00,,,0.01,0.00,VWS V14.01,2013-01-24 14:00:00,
2013-01-24 06:01:00,31.2,30.7,30.23,WSW,249,0.0,0.0,98,0.00,,,0.01,0.00,VWS V14.01,2013-01-24 14:01:00,
2013-01-24 06:06:00,31.1,30.6,30.23,WSW,249,0.0,0.0,98,0.00,,,0.01,0.00,VWS V14.01,2013-01-24 14:06:00,
2013-01-24 06:11:00,31.0,30.5,30.23,WSW,249,0.0,0.0,98,0.00,,,0.01,0.00,VWS V14.01,2013-01-24 14:11:00,
2013-01-24 06:16:00,31.0,30.5,30.23,WSW,249,0.0,0.0,98,0.00,,,0.01,0.00,VWS V14.01,2013-01-24 14:16:00,
2013-01-24 06:21:00,30.9,30.4,30.23,WSW,249,0.0,0.0,98,0.00,,,0.01,0.00,VWS V14.01,2013-01-24 14:21:00,
2013-01-24 06:26:00,30.8,30.3,30.23,WSW,249,0.0,0.0,98,0.00,,,0.01,0.00,VWS V14.01,2013-01-24 14:26:00,
2013-01-24 06:30:00,30.8,30.3,30.22,SE,127,1.0,2.0,98,0.00,,,0.01,0.00,VWS V14.01,2013-01-24 14:30:00,
2013-01-24 06:31:00,30.8,30.3,30.23,WSW,249,0.0,0.0,98,0.00,,,0.01,0.00,VWS V14.01,2013-01-24 14:31:00,
2013-01-24 06:36:00,30.7,30.0,30.23,WSW,249,0.0,1.0,97,0.00,,,0.01,0.00,VWS V14.01,2013-01-24 14:36:00,
2013-01-24 06:41:00,30.6,29.9,30.23,WSW,249,0.0,1.0,97,0.00,,,0.01,0.00,VWS V14.01,2013-01-24 14:41:00,
2013-01-24 06:46:00,30.6,29.9,30.22,WSW,249,0.0,1.0,97,0.00,,,0.01,0.00,VWS V14.01,2013-01-24 14:46:00,
2013-01-24 06:50:00,30.5,30.0,30.22,WSW,249,0.0,1.0,98,0.00,,,0.01,0.00,VWS V14.01,2013-01-24 14:50:00,
2013-01-24 06:55:00,30.5,30.0,30.22,WSW,249,0.0,1.0,98,0.00,,,0.01,0.00,VWS V14.01,2013-01-24 14:55:00,
2013-01-24 07:00:00,32.4,31.9,30.21,SE,126,2.0,3.0,98,0.00,,,0.01,9.00,VWS V14.01,2013-01-24 15:00:00,
2013-01-24 07:01:00,30.4,29.9,30.22,WSW,249,0.0,0.0,98,0.00,,,0.01,0.00,VWS V14.01,2013-01-24 15:01:00,
2013-01-24 07:06:00,30.4,29.9,30.22,WSW,249,0.0,0.0,98,0.00,,,0.01,0.00,VWS V14.01,2013-01-24 15:06:00,
2013-01-24 07:10:00,30.4,29.9,30.22,WSW,249,0.0,0.0,98,0.00,,,0.01,0.00,VWS V14.01,2013-01-24 15:10:00,
2013-01-24 07:15:00,30.3,29.8,30.22,WSW,249,0.0,0.0,98,0.00,,,0.01,0.00,VWS V14.01,2013-01-24 15:15:00,
2013-01-24 07:20:00,30.3,29.8,30.22,WSW,244,0.0,1.0,98,0.00,,,0.01,0.00,VWS V14.01,2013-01-24 15:20:00,
2013-01-24 07:25:00,30.4,29.9,30.22,SE,144,1.0,2.0,98,0.00,,,0.01,0.00,VWS V14.01,2013-01-24 15:25:00,
2013-01-24 07:30:00,30.8,30.3,30.22,SE,127,0.0,1.0,98,0.00,,,0.01,0.00,VWS V14.01,2013-01-24 15:30:00,
2013-01-24 07:35:00,31.5,31.0,30.22,SE,124,2.0,3.0,98,0.00,,,0.01,0.00,VWS V14.01,2013-01-24 15:35:00,
2013-01-24 07:40:00,31.8,31.3,30.22,SE,124,0.0,3.0,98,0.00,,,0.01,0.00,VWS V14.01,2013-01-24 15:40:00,
2013-01-24 07:45:00,31.9,31.4,30.21,SE,124,2.0,3.0,98,0.00,,,0.01,5.00,VWS V14.01,2013-01-24 15:45:00,
2013-01-24 07:50:00,32.5,32.2,30.21,SE,126,2.0,3.0,99,0.00,,,0.01,5.00,VWS V14.01,2013-01-24 15:50:00,
2013-01-24 07:55:00,32.5,32.0,30.21,SE,126,1.0,3.0,98,0.00,,,0.01,7.00,VWS V14.01,2013-01-24 15:55:00,
2013-01-24 08:00:00,32.4,31.9,30.21,SE,126,1.0,2.0,98,0.00,,,0.01,9.00,VWS V14.01,2013-01-24 16:00:00,
2013-01-24 08:05:00,32.5,32.0,30.21,SE,126,1.0,3.0,98,0.00,,,0.01,9.00,VWS V14.01,2013-01-24 16:05:00,
2013-01-24 08:10:00,32.5,32.0,30.21,SE,126,0.0,3.0,98,0.00,,,0.01,11.00,VWS V14.01,2013-01-24 16:10:00,
2013-01-24 08:15:00,32.6,32.3,30.21,SE,126,0.0,3.0,99,0.00,,,0.01,12.00,VWS V14.01,2013-01-24 16:15:00,
2013-01-24 08:20:00,32.6,32.3,30.21,SE,126,2.0,3.0,99,0.00,,,0.01,14.00,VWS V14.01,2013-01-24 16:20:00,
2013-01-24 08:25:00,32.8,32.5,30.21,SE,126,1.0,3.0,99,0.00,,,0.01,14.00,VWS V14.01,2013-01-24 16:25:00,
2013-01-24 08:30:00,32.9,32.7,30.21,SE,126,1.0,1.0,99,0.00,,,0.01,16.00,VWS V14.01,2013-01-24 16:30:00,
2013-01-24 08:35:00,32.9,32.7,30.22,SE,126,0.0,4.0,99,0.00,,,0.01,18.00,VWS V14.01,2013-01-24 16:35:00,
2013-01-24 08:40:00,33.1,32.8,30.21,ENE,59,2.0,4.0,99,0.00,,,0.01,18.00,VWS V14.01,2013-01-24 16:40:00,
2013-01-24 08:45:00,33.2,33.0,30.21,ENE,61,2.0,4.0,99,0.00,,,0.01,19.00,VWS V14.01,2013-01-24 16:45:00,
2013-01-24 08:50:00,33.2,33.0,30.21,ENE,63,1.0,4.0,99,0.00,,,0.01,19.00,VWS V14.01,2013-01-24 16:50:00,
2013-01-24 08:55:00,33.3,33.0,30.21,East,80,1.0,4.0,99,0.00,,,0.01,21.00,VWS V14.01,2013-01-24 16:55:00,
2013-01-24 09:00:00,33.3,33.0,30.21,East,80,3.0,3.0,99,0.00,,,0.01,25.00,VWS V14.01,2013-01-24 17:00:00,
2013-01-24 09:05:00,33.6,33.3,30.21,ESE,102,3.0,3.0,99,0.00,,,0.01,26.00,VWS V14.01,2013-01-24 17:05:00,
2013-01-24 09:10:00,33.9,33.7,30.21,SE,126,2.0,4.0,99,0.00,,,0.01,26.00,VWS V14.01,2013-01-24 17:10:00,
2013-01-24 09:15:00,34.1,33.8,30.22,SE,126,2.0,4.0,99,0.00,,,0.01,25.00,VWS V14.01,2013-01-24 17:15:00,
2013-01-24 09:20:00,34.2,34.0,30.22,SE,129,0.0,4.0,99,0.00,,,0.01,25.00,VWS V14.01,2013-01-24 17:20:00,
2013-01-24 09:25:00,34.3,34.0,30.21,SE,129,1.0,4.0,99,0.00,,,0.01,26.00,VWS V14.01,2013-01-24 17:25:00,
2013-01-24 09:30:00,34.4,34.2,30.21,SE,129,0.0,1.0,99,0.00,,,0.01,26.00,VWS V14.01,2013-01-24 17:30:00,
2013-01-24 09:35:00,34.5,34.2,30.21,SE,129,0.0,2.0,99,0.00,,,0.01,28.00,VWS V14.01,2013-01-24 17:35:00,
2013-01-24 09:40:00,34.9,34.7,30.21,SE,129,1.0,2.0,99,0.00,,,0.01,30.00,VWS V14.01,2013-01-24 17:40:00,
2013-01-24 09:45:00,35.0,34.8,30.21,SE,132,0.0,2.0,99,0.00,,,0.01,30.00,VWS V14.01,2013-01-24 17:45:00,
2013-01-24 09:50:00,35.2,35.0,30.21,SE,132,2.0,2.0,99,0.00,,,0.01,39.00,VWS V14.01,2013-01-24 17:50:00,
2013-01-24 09:55:00,35.7,35.5,30.21,SE,132,0.0,3.0,99,0.00,,,0.01,40.00,VWS V14.01,2013-01-24 17:55:00,
2013-01-24 10:00:00,35.9,35.7,30.21,SE,132,0.0,0.0,99,0.00,,,0.01,21.00,VWS V14.01,2013-01-24 18:00:00,
2013-01-24 10:05:00,35.8,35.5,30.21,SE,132,0.0,1.0,99,0.00,,,0.01,19.00,VWS V14.01,2013-01-24 18:05:00,
2013-01-24 10:10:00,35.7,35.5,30.20,SE,132,1.0,2.0,99,0.00,,,0.01,25.00,VWS V14.01,2013-01-24 18:10:00,
2013-01-24 10:15:00,35.7,35.5,30.20,SE,132,0.0,2.0,99,0.00,,,0.01,40.00,VWS V14.01,2013-01-24 18:15:00,
2013-01-24 10:20:00,35.9,35.7,30.20,SE,132,0.0,2.0,99,0.00,,,0.01,37.00,VWS V14.01,2013-01-24 18:20:00,
2013-01-24 10:25:00,36.5,36.2,30.20,SE,132,1.0,3.0,99,0.00,,,0.01,46.00,VWS V14.01,2013-01-24 18:25:00,
2013-01-24 10:30:00,37.1,36.8,30.20,SE,132,0.0,1.0,99,0.01,,,0.02,40.00,VWS V14.01,2013-01-24 18:30:00,
2013-01-24 10:35:00,37.3,37.0,30.20,SE,132,1.0,1.0,99,0.01,,,0.02,39.00,VWS V14.01,2013-01-24 18:35:00,
2013-01-24 10:40:00,37.7,37.5,30.21,SE,132,1.0,2.0,99,0.01,,,0.02,37.00,VWS V14.01,2013-01-24 18:40:00,
2013-01-24 10:45:00,37.9,37.6,30.21,SE,132,0.0,2.0,99,0.01,,,0.02,42.00,VWS V14.01,2013-01-24 18:45:00,
2013-01-24 10:50:00,38.2,37.9,30.21,SE,132,0.0,2.0,99,0.01,,,0.02,44.00,VWS V14.01,2013-01-24 18:50:00,
2013-01-24 10:55:00,38.7,38.4,30.20,SE,132,0.0,2.0,99,0.01,,,0.02,37.00,VWS V14.01,2013-01-24 18:55:00,
2013-01-24 11:00:00,38.8,38.5,30.20,SE,132,0.0,0.0,99,0.01,,,0.02,40.00,VWS V14.01,2013-01-24 19:00:00,
2013-01-24 11:05:00,38.9,38.6,30.20,SE,132,0.0,1.0,99,0.01,,,0.02,37.00,VWS V14.01,2013-01-24 19:05:00,
2013-01-24 11:10:00,39.4,39.1,30.20,SE,132,0.0,2.0,99,0.01,,,0.02,51.00,VWS V14.01,2013-01-24 19:10:00,
2013-01-24 11:15:00,40.1,39.8,30.19,SE,132,0.0,2.0,99,0.01,,,0.02,44.00,VWS V14.01,2013-01-24 19:15:00,
2013-01-24 11:20:00,40.7,40.7,30.19,SE,132,1.0,2.0,100,0.01,,,0.02,39.00,VWS V14.01,2013-01-24 19:20:00,
2013-01-24 11:25:00,41.0,40.7,30.19,SSE,157,1.0,3.0,99,0.01,,,0.02,65.00,VWS V14.01,2013-01-24 19:25:00,
2013-01-24 11:30:00,41.2,40.9,30.18,SSE,157,0.0,0.0,99,0.00,,,0.02,37.00,VWS V14.01,2013-01-24 19:30:00,
2013-01-24 11:35:00,41.5,41.2,30.18,SSE,157,0.0,2.0,99,0.00,,,0.02,37.00,VWS V14.01,2013-01-24 19:35:00,
2013-01-24 11:40:00,41.6,41.3,30.18,SSE,157,0.0,2.0,99,0.00,,,0.02,35.00,VWS V14.01,2013-01-24 19:40:00,
2013-01-24 11:45:00,41.9,41.6,30.18,SSE,157,0.0,2.0,99,0.00,,,0.02,35.00,VWS V14.01,2013-01-24 19:45:00,
2013-01-24 11:50:00,42.0,41.5,30.18,SSE,157,0.0,2.0,98,0.00,,,0.02,39.00,VWS V14.01,2013-01-24 19:50:00,
2013-01-24 11:55:00,42.3,41.8,30.18,SSE,157,0.0,2.0,98,0.00,,,0.02,47.00,VWS V14.01,2013-01-24 19:55:00,
2013-01-24 12:00:00,42.4,41.9,30.18,SSE,157,0.0,0.0,98,0.00,,,0.02,37.00,VWS V14.01,2013-01-24 20:00:00,
2013-01-24 12:05:00,43.2,42.7,30.17,SSE,157,0.0,0.0,98,0.00,,,0.02,40.00,VWS V14.01,2013-01-24 20:05:00,
2013-01-24 12:10:00,44.1,43.6,30.17,SSE,157,0.0,1.0,98,0.00,,,0.02,53.00,VWS V14.01,2013-01-24 20:10:00,
2013-01-24 12:15:00,44.5,43.7,30.17,SSE,157,0.0,1.0,97,0.00,,,0.02,95.00,VWS V14.01,2013-01-24 20:15:00,
2013-01-24 12:20:00,44.5,43.7,30.16,SSE,157,0.0,1.0,97,0.00,,,0.02,79.00,VWS V14.01,2013-01-24 20:20:00,
2013-01-24 12:25:00,44.4,43.6,30.16,SSE,157,0.0,2.0,97,0.00,,,0.02,111.00,VWS V14.01,2013-01-24 20:25:00,
2013-01-24 12:30:00,44.6,43.8,30.16,SSW,204,0.0,2.0,97,0.00,,,0.02,114.00,VWS V14.01,2013-01-24 20:30:00,
2013-01-24 12:35:00,45.0,44.2,30.16,SSW,204,0.0,0.0,97,0.00,,,0.02,195.00,VWS V14.01,2013-01-24 20:35:00,
2013-01-24 12:40:00,45.6,44.8,30.15,SSW,204,0.0,1.0,97,0.00,,,0.02,165.00,VWS V14.01,2013-01-24 20:40:00,
2013-01-24 12:45:00,46.8,44.3,30.15,SSW,200,0.0,1.0,91,0.00,,,0.02,125.00,VWS V14.01,2013-01-24 20:45:00,
2013-01-24 12:50:00,47.3,44.5,30.14,SSW,200,0.0,1.0,90,0.00,,,0.02,211.00,VWS V14.01,2013-01-24 20:50:00,
2013-01-24 12:55:00,47.8,45.3,30.14,SSW,200,1.0,1.0,91,0.00,,,0.02,165.00,VWS V14.01,2013-01-24 20:55:00,
2013-01-24 13:00:00,48.4,45.0,30.14,SSW,200,0.0,1.0,88,0.00,,,0.02,269.00,VWS V14.01,2013-01-24 21:00:00,
2013-01-24 13:05:00,48.3,45.2,30.14,SSW,200,1.0,1.0,89,0.00,,,0.02,98.00,VWS V14.01,2013-01-24 21:05:00,
2013-01-24 13:10:00,48.1,45.0,30.14,SSW,200,0.0,1.0,89,0.00,,,0.02,113.00,VWS V14.01,2013-01-24 21:10:00,
2013-01-24 13:15:00,47.9,45.1,30.14,SSW,200,0.0,1.0,90,0.00,,,0.02,116.00,VWS V14.01,2013-01-24 21:15:00,
2013-01-24 13:20:00,48.1,44.7,30.14,SSW,200,0.0,1.0,88,0.00,,,0.02,116.00,VWS V14.01,2013-01-24 21:20:00,
2013-01-24 13:25:00,47.8,44.7,30.14,SSW,200,0.0,1.0,89,0.00,,,0.02,111.00,VWS V14.01,2013-01-24 21:25:00,
2013-01-24 13:30:00,47.9,44.5,30.13,SSW,200,0.0,1.0,88,0.00,,,0.02,100.00,VWS V14.01,2013-01-24 21:30:00,
2013-01-24 13:35:00,48.0,44.6,30.13,SSW,200,0.0,0.0,88,0.00,,,0.02,102.00,VWS V14.01,2013-01-24 21:35:00,
2013-01-24 13:40:00,47.9,44.5,30.13,SSW,200,0.0,1.0,88,0.00,,,0.02,102.00,VWS V14.01,2013-01-24 21:40:00,
2013-01-24 13:45:00,47.8,44.7,30.13,SSW,200,0.0,1.0,89,0.00,,,0.02,97.00,VWS V14.01,2013-01-24 21:45:00,
2013-01-24 13:50:00,48.0,44.6,30.13,North,352,0.0,3.0,88,0.00,,,0.02,102.00,VWS V14.01,2013-01-24 21:50:00,
2013-01-24 13:55:00,47.9,44.8,30.12,North,352,0.0,3.0,89,0.00,,,0.02,113.00,VWS V14.01,2013-01-24 21:55:00,
2013-01-24 14:00:00,47.8,45.0,30.12,North,352,0.0,3.0,90,0.00,,,0.02,107.00,VWS V14.01,2013-01-24 22:00:00,
2013-01-24 14:05:00,48.0,45.2,30.13,North,352,0.0,1.0,90,0.00,,,0.02,104.00,VWS V14.01,2013-01-24 22:05:00,
2013-01-24 14:10:00,48.1,45.3,30.13,North,352,0.0,1.0,90,0.00,,,0.02,97.00,VWS V14.01,2013-01-24 22:10:00,
2013-01-24 14:15:00,48.3,45.2,30.12,North,352,1.0,1.0,89,0.00,,,0.02,98.00,VWS V14.01,2013-01-24 22:15:00,
2013-01-24 14:20:00,48.2,45.1,30.12,North,352,0.0,1.0,89,0.00,,,0.02,111.00,VWS V14.01,2013-01-24 22:20:00,
2013-01-24 14:25:00,48.6,45.5,30.12,North,352,0.0,1.0,89,0.00,,,0.02,111.00,VWS V14.01,2013-01-24 22:25:00,
2013-01-24 14:30:00,48.8,45.4,30.12,North,352,0.0,1.0,88,0.00,,,0.02,98.00,VWS V14.01,2013-01-24 22:30:00,
2013-01-24 14:35:00,49.1,45.4,30.11,North,352,0.0,3.0,87,0.00,,,0.02,81.00,VWS V14.01,2013-01-24 22:35:00,
2013-01-24 14:39:00,49.3,45.6,30.12,NNE,24,0.0,3.0,87,0.00,,,0.02,95.00,VWS V14.01,2013-01-24 22:39:00,
2013-01-24 14:45:00,49.8,46.1,30.12,NNE,24,0.0,3.0,87,0.00,,,0.02,125.00,VWS V14.01,2013-01-24 22:45:00,
2013-01-24 14:50:00,49.9,46.2,30.12,NNE,24,1.0,3.0,87,0.00,,,0.02,125.00,VWS V14.01,2013-01-24 22:50:00,
2013-01-24 14:54:00,50.1,46.1,30.12,NNE,24,0.0,3.0,86,0.00,,,0.02,81.00,VWS V14.01,2013-01-24 22:54:00,
2013-01-24 14:59:00,50.1,46.4,30.12,NNE,24,0.0,3.0,87,0.00,,,0.02,74.00,VWS V14.01,2013-01-24 22:59:00,
2013-01-24 15:00:00,48.7,45.9,30.12,NNE,24,0.0,1.0,90,0.00,,,0.02,37.00,VWS V14.01,2013-01-24 23:00:00,
2013-01-24 15:04:00,49.9,46.5,30.12,NNE,24,0.0,0.0,88,0.00,,,0.02,63.00,VWS V14.01,2013-01-24 23:04:00,
2013-01-24 15:09:00,49.8,46.7,30.12,NNE,24,0.0,0.0,89,0.00,,,0.02,65.00,VWS V14.01,2013-01-24 23:09:00,
2013-01-24 15:14:00,49.6,46.5,30.12,NNE,24,0.0,0.0,89,0.00,,,0.02,74.00,VWS V14.01,2013-01-24 23:14:00,
2013-01-24 15:19:00,49.6,46.2,30.12,NNE,24,0.0,0.0,88,0.00,,,0.02,69.00,VWS V14.01,2013-01-24 23:19:00,
2013-01-24 15:24:00,49.6,46.2,30.12,NNE,24,0.0,1.0,88,0.00,,,0.02,83.00,VWS V14.01,2013-01-24 23:24:00,
2013-01-24 15:29:00,49.6,46.5,30.12,NNE,24,0.0,1.0,89,0.00,,,0.02,79.00,VWS V14.01,2013-01-24 23:29:00,
2013-01-24 15:30:00,48.1,45.3,30.13,NNE,24,0.0,0.0,90,0.00,,,0.02,23.00,VWS V14.01,2013-01-24 23:30:00,
2013-01-24 15:34:00,49.6,46.2,30.12,NNE,24,0.0,1.0,88,0.00,,,0.02,47.00,VWS V14.01,2013-01-24 23:34:00,
2013-01-24 15:39:00,49.3,46.2,30.12,NNE,24,0.0,1.0,89,0.00,,,0.02,49.00,VWS V14.01,2013-01-24 23:39:00,
2013-01-24 15:44:00,49.1,46.0,30.12,NNE,24,0.0,1.0,89,0.00,,,0.02,44.00,VWS V14.01,2013-01-24 23:44:00,
2013-01-24 15:49:00,49.0,45.9,30.12,NNE,24,0.0,1.0,89,0.00,,,0.02,42.00,VWS V14.01,2013-01-24 23:49:00,
2013-01-24 15:54:00,48.8,46.0,30.12,NNE,24,0.0,1.0,90,0.00,,,0.02,39.00,VWS V14.01,2013-01-24 23:54:00,
2013-01-24 15:59:00,48.7,45.9,30.12,NNE,24,0.0,1.0,90,0.00,,,0.02,37.00,VWS V14.01,2013-01-24 23:59:00,
2013-01-24 16:00:00,47.0,44.5,30.14,NNE,24,0.0,1.0,91,0.00,,,0.02,0.00,VWS V14.01,2013-01-25 00:00:00,
2013-01-24 16:04:00,48.6,45.8,30.12,NNE,24,0.0,0.0,90,0.00,,,0.02,26.00,VWS V14.01,2013-01-25 00:04:00,
2013-01-24 16:09:00,48.6,45.8,30.12,NNE,24,0.0,0.0,90,0.00,,,0.02,21.00,VWS V14.01,2013-01-25 00:09:00,
2013-01-24 16:14:00,48.5,45.4,30.12,NNE,24,0.0,0.0,89,0.00,,,0.02,18.00,VWS V14.01,2013-01-25 00:14:00,
2013-01-24 16:19:00,48.4,45.6,30.13,NNE,24,0.0,0.0,90,0.00,,,0.02,18.00,VWS V14.01,2013-01-25 00:19:00,
2013-01-24 16:24:00,48.3,45.5,30.13,NNE,24,0.0,0.0,90,0.00,,,0.02,19.00,VWS V14.01,2013-01-25 00:24:00,
2013-01-24 16:29:00,48.1,45.3,30.13,NNE,24,0.0,0.0,90,0.00,,,0.02,23.00,VWS V14.01,2013-01-25 00:29:00,
2013-01-24 16:30:00,45.4,43.2,30.14,NNE,24,0.0,1.0,92,0.00,,,0.02,0.00,VWS V14.01,2013-01-25 00:30:00,
2013-01-24 16:34:00,47.8,45.0,30.13,NNE,24,0.0,0.0,90,0.00,,,0.02,18.00,VWS V14.01,2013-01-25 00:34:00,
2013-01-24 16:39:00,47.7,45.2,30.14,NNE,24,0.0,0.0,91,0.00,,,0.02,9.00,VWS V14.01,2013-01-25 00:39:00,
2013-01-24 16:44:00,47.6,45.1,30.14,NNE,24,0.0,0.0,91,0.00,,,0.02,5.00,VWS V14.01,2013-01-25 00:44:00,
2013-01-24 16:49:00,47.5,45.0,30.14,NNE,24,0.0,0.0,91,0.00,,,0.02,0.00,VWS V14.01,2013-01-25 00:49:00,
2013-01-24 16:54:00,47.3,44.8,30.14,NNE,24,0.0,0.0,91,0.00,,,0.02,0.00,VWS V14.01,2013-01-25 00:54:00,
2013-01-24 16:59:00,47.1,44.6,30.14,NNE,24,0.0,0.0,91,0.00,,,0.02,0.00,VWS V14.01,2013-01-25 00:59:00,
2013-01-24 17:00:00,44.1,42.2,30.14,NNE,24,0.0,0.0,93,0.00,,,0.02,0.00,VWS V14.01,2013-01-25 01:00:00,
2013-01-24 17:04:00,46.8,44.3,30.14,NNE,24,0.0,1.0,91,0.00,,,0.02,0.00,VWS V14.01,2013-01-25 01:04:00,
2013-01-24 17:09:00,46.5,44.0,30.14,NNE,24,0.0,1.0,91,0.00,,,0.02,0.00,VWS V14.01,2013-01-25 01:09:00,
2013-01-24 17:14:00,46.2,43.7,30.14,NNE,24,0.0,1.0,91,0.00,,,0.02,0.00,VWS V14.01,2013-01-25 01:14:00,
2013-01-24 17:19:00,45.9,43.4,30.15,NNE,24,0.0,1.0,91,0.00,,,0.02,0.00,VWS V14.01,2013-01-25 01:19:00,
2013-01-24 17:24:00,45.7,43.5,30.14,NNE,24,0.0,1.0,92,0.00,,,0.02,0.00,VWS V14.01,2013-01-25 01:24:00,
2013-01-24 17:29:00,45.5,43.3,30.14,NNE,24,0.0,1.0,92,0.00,,,0.02,0.00,VWS V14.01,2013-01-25 01:29:00,
2013-01-24 17:30:00,43.0,41.4,30.15,NNE,24,0.0,1.0,94,0.00,,,0.02,0.00,VWS V14.01,2013-01-25 01:30:00,
2013-01-24 17:34:00,45.2,43.0,30.14,NNE,24,0.0,0.0,92,0.00,,,0.02,0.00,VWS V14.01,2013-01-25 01:34:00,
2013-01-24 17:39:00,45.0,42.8,30.15,NNE,24,0.0,0.0,92,0.00,,,0.02,0.00,VWS V14.01,2013-01-25 01:39:00,
2013-01-24 17:44:00,44.7,42.8,30.14,NNE,24,0.0,0.0,93,0.00,,,0.02,0.00,VWS V14.01,2013-01-25 01:44:00,
2013-01-24 17:49:00,44.5,42.6,30.15,NNE,24,0.0,0.0,93,0.00,,,0.02,0.00,VWS V14.01,2013-01-25 01:49:00,
2013-01-24 17:54:00,44.3,42.4,30.14,NNE,24,0.0,0.0,93,0.00,,,0.02,0.00,VWS V14.01,2013-01-25 01:54:00,
2013-01-24 17:59:00,44.2,42.3,30.14,NNE,24,0.0,0.0,93,0.00,,,0.02,0.00,VWS V14.01,2013-01-25 01:59:00,
2013-01-24 18:00:00,42.2,40.9,30.16,NNE,24,0.0,2.0,95,0.03,,,0.05,0.00,VWS V14.01,2013-01-25 02:00:00,
2013-01-24 18:04:00,44.0,42.1,30.14,NNE,24,0.0,0.0,93,0.00,,,0.02,0.00,VWS V14.01,2013-01-25 02:04:00,
2013-01-24 18:09:00,43.8,41.9,30.15,NNE,24,0.0,0.0,93,0.00,,,0.02,0.00,VWS V14.01,2013-01-25 02:09:00,
2013-01-24 18:14:00,43.6,41.7,30.15,NNE,24,0.0,1.0,93,0.00,,,0.02,0.00,VWS V14.01,2013-01-25 02:14:00,
2013-01-24 18:19:00,43.3,41.7,30.15,NNE,24,0.0,1.0,94,0.00,,,0.02,0.00,VWS V14.01,2013-01-25 02:19:00,
2013-01-24 18:24:00,43.1,41.5,30.15,NNE,24,0.0,1.0,94,0.00,,,0.02,0.00,VWS V14.01,2013-01-25 02:24:00,
2013-01-24 18:29:00,43.1,41.5,30.15,NNE,24,0.0,1.0,94,0.00,,,0.02,0.00,VWS V14.01,2013-01-25 02:29:00,
2013-01-24 18:30:00,41.5,40.5,30.16,NNE,24,0.0,2.0,96,0.06,,,0.08,0.00,VWS V14.01,2013-01-25 02:30:00,
2013-01-24 18:34:00,42.9,41.3,30.16,NNE,24,0.0,0.0,94,0.00,,,0.02,0.00,VWS V14.01,2013-01-25 02:34:00,
2013-01-24 18:39:00,42.9,41.3,30.16,NNE,24,1.0,1.0,94,0.00,,,0.02,0.00,VWS V14.01,2013-01-25 02:39:00,
2013-01-24 18:44:00,42.6,41.0,30.16,NNE,24,0.0,2.0,94,0.01,,,0.03,0.00,VWS V14.01,2013-01-25 02:44:00,
2013-01-24 18:49:00,42.5,41.2,30.16,NNE,24,0.0,2.0,95,0.01,,,0.03,0.00,VWS V14.01,2013-01-25 02:49:00,
2013-01-24 18:54:00,42.4,41.1,30.16,NNE,24,0.0,2.0,95,0.02,,,0.04,0.00,VWS V14.01,2013-01-25 02:54:00,
2013-01-24 18:59:00,42.2,40.9,30.16,NNE,24,0.0,2.0,95,0.02,,,0.04,0.00,VWS V14.01,2013-01-25 02:59:00,
2013-01-24 19:00:00,40.9,40.1,30.15,NNE,24,0.0,2.0,97,0.11,,,0.13,0.00,VWS V14.01,2013-01-25 03:00:00,
2013-01-24 19:04:00,42.1,40.8,30.16,NNE,24,0.0,1.0,95,0.03,,,0.05,0.00,VWS V14.01,2013-01-25 03:04:00,
2013-01-24 19:09:00,42.0,40.7,30.16,NNE,24,0.0,1.0,95,0.04,,,0.06,0.00,VWS V14.01,2013-01-25 03:09:00,
2013-01-24 19:14:00,41.8,40.8,30.16,NNE,24,0.0,2.0,96,0.04,,,0.06,0.00,VWS V14.01,2013-01-25 03:14:00,
2013-01-24 19:19:00,41.7,40.7,30.17,NNE,24,0.0,2.0,96,0.05,,,0.07,0.00,VWS V14.01,2013-01-25 03:19:00,
2013-01-24 19:24:00,41.6,40.5,30.17,NNE,24,0.0,2.0,96,0.05,,,0.07,0.00,VWS V14.01,2013-01-25 03:24:00,
2013-01-24 19:29:00,41.5,40.5,30.16,NNE,24,0.0,2.0,96,0.06,,,0.08,0.00,VWS V14.01,2013-01-25 03:29:00,
2013-01-24 19:30:00,40.5,39.7,30.16,NNE,24,0.0,1.0,97,0.09,,,0.14,0.00,VWS V14.01,2013-01-25 03:30:00,
2013-01-24 19:34:00,41.4,40.3,30.15,NNE,24,1.0,2.0,96,0.07,,,0.09,0.00,VWS V14.01,2013-01-25 03:34:00,
2013-01-24 19:39:00,41.2,40.2,30.15,NNE,24,0.0,2.0,96,0.09,,,0.11,0.00,VWS V14.01,2013-01-25 03:39:00,
2013-01-24 19:44:00,41.1,40.0,30.15,NNE,24,0.0,2.0,96,0.10,,,0.12,0.00,VWS V14.01,2013-01-25 03:44:00,
2013-01-24 19:49:00,41.0,40.2,30.15,NNE,24,0.0,2.0,97,0.10,,,0.12,0.00,VWS V14.01,2013-01-25 03:49:00,
2013-01-24 19:54:00,40.9,40.1,30.15,NNE,24,0.0,2.0,97,0.11,,,0.13,0.00,VWS V14.01,2013-01-25 03:54:00,
2013-01-24 19:59:00,40.9,40.1,30.15,NNE,24,0.0,2.0,97,0.11,,,0.13,0.00,VWS V14.01,2013-01-25 03:59:00,
2013-01-24 20:00:00,40.4,39.9,30.15,NNE,24,0.0,2.0,98,0.07,,,0.15,0.00,VWS V14.01,2013-01-25 04:00:00,
2013-01-24 20:04:00,40.8,40.0,30.15,NNE,24,0.0,1.0,97,0.08,,,0.13,0.00,VWS V14.01,2013-01-25 04:04:00,
2013-01-24 20:09:00,40.7,39.9,30.15,NNE,24,0.0,1.0,97,0.08,,,0.13,0.00,VWS V14.01,2013-01-25 04:09:00,
2013-01-24 20:14:00,40.7,39.9,30.15,NNE,24,0.0,1.0,97,0.08,,,0.13,0.00,VWS V14.01,2013-01-25 04:14:00,
2013-01-24 20:19:00,40.6,39.8,30.16,NNE,24,0.0,1.0,97,0.08,,,0.13,0.00,VWS V14.01,2013-01-25 04:19:00,
2013-01-24 20:24:00,40.6,39.8,30.16,NNE,24,0.0,1.0,97,0.08,,,0.13,0.00,VWS V14.01,2013-01-25 04:24:00,
2013-01-24 20:29:00,40.5,39.7,30.16,NNE,24,0.0,1.0,97,0.08,,,0.13,0.00,VWS V14.01,2013-01-25 04:29:00,
2013-01-24 20:30:00,40.3,39.8,30.16,NNE,24,0.0,2.0,98,0.04,,,0.17,0.00,VWS V14.01,2013-01-25 04:30:00,
2013-01-24 20:34:00,40.6,39.8,30.16,NNE,24,1.0,1.0,97,0.06,,,0.14,0.00,VWS V14.01,2013-01-25 04:34:00,
2013-01-24 20:39:00,40.5,39.7,30.15,NNE,24,0.0,1.0,97,0.06,,,0.14,0.00,VWS V14.01,2013-01-25 04:39:00,
2013-01-24 20:43:00,40.5,39.7,30.15,NNE,24,0.0,1.0,97,0.07,,,0.15,0.00,VWS V14.01,2013-01-25 04:43:00,
2013-01-24 20:48:00,40.4,39.6,30.15,NNE,24,0.0,1.0,97,0.07,,,0.15,0.00,VWS V14.01,2013-01-25 04:48:00,
2013-01-24 20:53:00,40.4,39.6,30.15,NNE,24,0.0,1.0,97,0.07,,,0.15,0.00,VWS V14.01,2013-01-25 04:53:00,
2013-01-24 20:58:00,40.4,39.9,30.16,NNE,24,0.0,2.0,98,0.07,,,0.15,0.00,VWS V14.01,2013-01-25 04:58:00,
2013-01-24 21:00:00,40.4,39.9,30.16,NNE,24,1.0,2.0,98,0.02,,,0.15,0.00,VWS V14.01,2013-01-25 05:00:00,
2013-01-24 21:01:00,40.4,39.9,30.16,NNE,24,1.0,2.0,98,0.02,,,0.15,0.00,VWS V14.01,2013-01-25 05:01:00,
2013-01-24 21:03:00,40.4,39.9,30.16,NNE,24,0.0,2.0,98,0.02,,,0.15,0.00,VWS V14.01,2013-01-25 05:03:00,
2013-01-24 21:08:00,40.3,39.8,30.16,NNE,24,0.0,2.0,98,0.03,,,0.16,0.00,VWS V14.01,2013-01-25 05:08:00,
2013-01-24 21:13:00,40.4,39.9,30.16,NNE,24,0.0,2.0,98,0.03,,,0.16,0.00,VWS V14.01,2013-01-25 05:13:00,
2013-01-24 21:18:00,40.4,39.9,30.16,NNE,24,0.0,2.0,98,0.04,,,0.17,0.00,VWS V14.01,2013-01-25 05:18:00,
2013-01-24 21:23:00,40.4,39.9,30.16,NNE,24,0.0,2.0,98,0.04,,,0.17,0.00,VWS V14.01,2013-01-25 05:23:00,
2013-01-24 21:28:00,40.4,39.9,30.16,NNE,24,0.0,2.0,98,0.04,,,0.17,0.00,VWS V14.01,2013-01-25 05:28:00,
2013-01-24 21:30:00,39.8,39.3,30.15,NNE,24,0.0,1.0,98,0.04,,,0.19,0.00,VWS V14.01,2013-01-25 05:30:00,
2013-01-24 21:33:00,40.3,39.8,30.16,NNE,24,0.0,1.0,98,0.04,,,0.18,0.00,VWS V14.01,2013-01-25 05:33:00,
2013-01-24 21:38:00,40.3,39.8,30.16,NNE,24,0.0,1.0,98,0.04,,,0.18,0.00,VWS V14.01,2013-01-25 05:38:00,
2013-01-24 21:43:00,40.3,39.8,30.16,NNE,24,0.0,1.0,98,0.04,,,0.18,0.00,VWS V14.01,2013-01-25 05:43:00,
2013-01-24 21:48:00,40.2,39.7,30.16,NNE,24,0.0,1.0,98,0.04,,,0.18,0.00,VWS V14.01,2013-01-25 05:48:00,
2013-01-24 21:53:00,40.2,39.7,30.15,NNE,24,0.0,1.0,98,0.04,,,0.18,0.00,VWS V14.01,2013-01-25 05:53:00,
2013-01-24 21:58:00,40.1,39.6,30.15,NNE,24,0.0,1.0,98,0.04,,,0.18,0.00,VWS V14.01,2013-01-25 05:58:00,
2013-01-24 22:00:00,40.1,39.6,30.16,NNE,24,0.0,0.0,98,0.03,,,0.20,0.00,VWS V14.01,2013-01-25 06:00:00,
2013-01-24 22:03:00,40.0,39.5,30.15,NNE,24,0.0,0.0,98,0.03,,,0.18,0.00,VWS V14.01,2013-01-25 06:03:00,
2013-01-24 22:08:00,40.0,39.5,30.15,NNE,24,0.0,1.0,98,0.03,,,0.18,0.00,VWS V14.01,2013-01-25 06:08:00,
2013-01-24 22:13:00,39.9,39.4,30.15,NNE,24,0.0,1.0,98,0.03,,,0.18,0.00,VWS V14.01,2013-01-25 06:13:00,
2013-01-24 22:18:00,39.8,39.3,30.15,NNE,24,0.0,1.0,98,0.04,,,0.19,0.00,VWS V14.01,2013-01-25 06:18:00,
2013-01-24 22:23:00,39.8,39.3,30.15,NNE,24,0.0,1.0,98,0.04,,,0.19,0.00,VWS V14.01,2013-01-25 06:23:00,
2013-01-24 22:28:00,39.8,39.3,30.16,NNE,24,0.0,1.0,98,0.04,,,0.19,0.00,VWS V14.01,2013-01-25 06:28:00,
2013-01-24 22:30:00,40.1,39.6,30.16,NNE,24,0.0,1.0,98,0.02,,,0.20,0.00,VWS V14.01,2013-01-25 06:30:00,
2013-01-24 22:33:00,39.8,39.3,30.16,NNE,24,0.0,0.0,98,0.02,,,0.19,0.00,VWS V14.01,2013-01-25 06:33:00,
2013-01-24 22:38:00,40.0,39.5,30.15,NNE,24,0.0,0.0,98,0.02,,,0.19,0.00,VWS V14.01,2013-01-25 06:38:00,
2013-01-24 22:43:00,40.0,39.5,30.15,NNE,24,0.0,0.0,98,0.02,,,0.19,0.00,VWS V14.01,2013-01-25 06:43:00,
2013-01-24 22:48:00,40.1,39.6,30.16,NNE,24,0.0,0.0,98,0.02,,,0.19,0.00,VWS V14.01,2013-01-25 06:48:00,
2013-01-24 22:53:00,40.1,39.6,30.16,NNE,24,0.0,0.0,98,0.02,,,0.19,0.00,VWS V14.01,2013-01-25 06:53:00,
2013-01-24 22:58:00,40.1,39.6,30.16,NNE,24,0.0,0.0,98,0.03,,,0.20,0.00,VWS V14.01,2013-01-25 06:58:00,
2013-01-24 23:00:00,40.0,39.5,30.15,NNE,24,0.0,0.0,98,0.04,,,0.00,0.00,VWS V14.01,2013-01-25 07:00:00,
2013-01-24 23:03:00,40.1,39.6,30.16,NNE,24,0.0,0.0,98,0.02,,,0.20,0.00,VWS V14.01,2013-01-25 07:03:00,
2013-01-24 23:08:00,40.1,39.6,30.16,NNE,24,0.0,1.0,98,0.02,,,0.20,0.00,VWS V14.01,2013-01-25 07:08:00,
2013-01-24 23:12:00,40.1,39.6,30.16,NNE,24,0.0,1.0,98,0.02,,,0.20,0.00,VWS V14.01,2013-01-25 07:12:00,
2013-01-24 23:17:00,40.1,39.6,30.16,NNE,24,0.0,1.0,98,0.02,,,0.20,0.00,VWS V14.01,2013-01-25 07:17:00,
2013-01-24 23:22:00,40.1,39.6,30.16,NNE,24,0.0,1.0,98,0.02,,,0.20,0.00,VWS V14.01,2013-01-25 07:22:00,
2013-01-24 23:27:00,40.1,39.6,30.16,NNE,24,0.0,1.0,98,0.02,,,0.20,0.00,VWS V14.01,2013-01-25 07:27:00,
2013-01-24 23:30:00,39.9,39.4,30.15,NNE,24,0.0,0.0,98,0.04,,,0.01,0.00,VWS V14.01,2013-01-25 07:30:00,
2013-01-24 23:32:00,40.1,39.6,30.16,NNE,24,0.0,0.0,98,0.01,,,0.20,0.00,VWS V14.01,2013-01-25 07:32:00,
2013-01-24 23:37:00,40.1,39.6,30.16,NNE,24,0.0,0.0,98,0.02,,,0.21,0.00,VWS V14.01,2013-01-25 07:37:00,
2013-01-24 23:42:00,40.0,39.5,30.16,NNE,24,0.0,0.0,98,0.02,,,0.21,0.00,VWS V14.01,2013-01-25 07:42:00,
2013-01-24 23:47:00,40.0,39.5,30.16,NNE,24,0.0,0.0,98,0.03,,,0.22,0.00,VWS V14.01,2013-01-25 07:47:00,
2013-01-24 23:52:00,40.0,39.5,30.16,NNE,24,0.0,0.0,98,0.03,,,0.22,0.00,VWS V14.01,2013-01-25 07:52:00,
2013-01-24 23:57:00,40.0,39.5,30.16,NNE,24,0.0,0.0,98,0.03,,,0.22,0.00,VWS V14.01,2013-01-25 07:57:00,